Terug naar catalogus

ELECTRON KICK STAGE R/B

ActiefVLEO
NORAD 64230·ROCKET BODY·🇺🇸 United States

Gelanceerd Jun 2, 2025 vanaf Rocket Lab Launch Complex 1

Loading…

Volgende Passages (komende 24 uur)

TLE

VersSource: Space-Track

Epoch: Sep 14, 2026, 14:02 UTC

1 64230U 25118A   26257.58498337  .00239241  00000-0  99211-3 0  9997
2 64230  58.9702  94.4370 0003011  87.7573 272.3869 15.84761798 72593

Volg ELECTRON KICK STAGE R/B in realtime met AllMySat

Download on the App Store